カタログに戻る

KUIPER-00641

運用中通信LEO
NORAD 69787·PAYLOAD·🇺🇸 United States

打ち上げ Jul 2, 2026 から Cape Canaveral Space Force Station

Loading…

次のパス (今後24時間)

TLE

最新Source: CelesTrak SupGP

元期: Sep 14, 2026, 21:20 UTC

1 69787C 26151AA  26257.88900463 -.00578500  00000+0 -70963-1 0  2571
2 69787  51.9002 249.0498 0009644  45.7200 193.1641 14.83189655    19

AllMySatでKUIPER-00641をリアルタイム追跡

Download on the App Store